Regional Weather Roundup
Issued by NWS

Home | Current Version | Previous Version | Text Only | Print | Product List | Glossary On
Versions: 1 2 3 4 5 6 7 8 9 10 11 12 13 14 15 16 17 18 19 20 21 22 23 24 25 26 27 28 29 30 31 32 33 34 35 36 37 38 39 40 41 42 43 44 45 46 47 48 49 50
000
ASUS43 KDMX 302207
RWRIA

WEATHER ROUNDUP FOR IOWA
NATIONAL WEATHER SERVICE DES MOINES IA
500 PM CDT SAT AUG 30 2014

NOTE: "FAIR" INDICATES FEW OR NO CLOUDS BELOW 12,000 FEET WITH NO
SIGNIFICANT WEATHER AND/OR OBSTRUCTIONS TO VISIBILITY.

* - THESE STATIONS ARE NOT NWS STATIONS...THUS NOT UNDER NWS
QUALITY CONTROL.  THEY ALSO DO NOT REPORT WEATHER SUCH
AS PRECIPITATION OR FOG.

IAZ001>003-012>014-020>022-031>034-043>046-302300-
   NORTHWEST IOWA

CITY           SKY/WX    TMP DP  RH WIND       PRES   REMARKS
CARROLL *      SUNNY     77  63  61 W10       29.88F
CHEROKEE *     SUNNY     75  63  64 SW6       29.89S
DENISON *      SUNNY     75  63  64 VRB5      29.88F
LE MARS *      SUNNY     73  63  68 SW6       29.89F
ORANGE CITY *  MOSUNNY   75  61  60 SW5       29.88F
SHELDON *      MOSUNNY   73  64  73 CALM      29.87F
SIOUX CITY     SUNNY     76  60  57 VRB3      29.87F
SPENCER        SUNNY     78  63  59 W10       29.88S HX  80
STORM LAKE *   SUNNY     73  72  94 W6        29.89F
$$

IAZ055>058-069>071-079>083-090>094-302300-
   SOUTHWEST IOWA

CITY           SKY/WX    TMP DP  RH WIND       PRES   REMARKS
ATLANTIC *     MOSUNNY   79  66  65 SW8       29.89S HX  81
AUDUBON *      SUNNY     81  68  65 W3        29.90F HX  83
CLARINDA *     SUNNY     82  66  57 NW3       29.90S HX  85
COUNCIL BLFS * SUNNY     79  66  65 CALM      29.88F HX  81
CRESTON *      SUNNY     79  68  69 W6        29.90F HX  81
HARLAN  *      SUNNY     77  66  69 W5        29.92F
LAMONI         SUNNY     82  65  56 SW5       29.89F HX  84
RED OAK *      SUNNY     81  66  61 CALM      29.89F HX  83
SHENANDOAH *   MOSUNNY   82  66  57 CALM      29.89F HX  85
$$

IAZ047>049-059>061-072>074-084-302300-
   CENTRAL IOWA

CITY           SKY/WX    TMP DP  RH WIND       PRES   REMARKS
AMES           MOSUNNY   79  65  62 SW8       29.87F HX  81
ANKENY *       MOSUNNY   79  68  69 W7        29.87S HX  81
CHARITON *     SUNNY     81  68  65 CALM      29.88F HX  83
DES MOINES     MOSUNNY   81  68  64 W5        29.86F HX  84
GRINNELL*      MOSUNNY   81  66  61 SW6       29.88F HX  83
KNOXVILLE *    SUNNY     81  66  61 W3        29.87S HX  83
MARSHALLTOWN   MOSUNNY   78  67  68 W8        29.87S HX  80
PELLA *        SUNNY     84  70  61 CALM      29.88F HX  88
PERRY *          N/A     77  66  69 SW5       29.88F
$$

IAZ004>006-015-016-023>025-035-036-302300-
   NORTH CENTRAL IOWA

CITY           SKY/WX    TMP DP  RH WIND       PRES   REMARKS
ALGONA *       MOSUNNY   75  63  64 W3        29.88S
CLARION *      MOSUNNY   77  64  65 VRB6      29.88S
ESTHERVILLE    MOSUNNY   75  62  64 CALM      29.87F
FORT DODGE *   MOSUNNY   77  64  65 CALM      29.88F
MASON CITY     MOSUNNY   76  65  68 NW8       29.88F
FOREST CITY *  PTSUNNY   73  64  73 W6        29.87S
IOWA FALLS *     N/A     77  64  65 W7        29.89S
$$

IAZ007>011-017>019-026>030-037>042-050>054-066-302300-
   NORTHEAST IOWA

CITY           SKY/WX    TMP DP  RH WIND       PRES   REMARKS
CEDAR RAPIDS   PTSUNNY   77  68  73 W6        29.87S
CHARLES CITY * MOSUNNY   77  66  69 W6        29.86S
CLINTON *      SUNNY     79  66  65 W8        29.89S HX  81
DECORAH *      MOSUNNY   77  66  69 NW6       29.84S
DUBUQUE        MOSUNNY   78  65  63 W12       29.86S HX  80
MONTICELLO *   MOSUNNY   81  68  65 SW12      29.86S HX  83
OELWEIN *      MOSUNNY   77  68  73 SW9       29.87S
WATERLOO       SUNNY     79  65  62 W10       29.85S HX  81
$$

IAZ064-065-067-068-078-302300-
   EAST CENTRAL IOWA

CITY           SKY/WX    TMP DP  RH WIND       PRES   REMARKS
DAVENPORT      MOSUNNY   79  67  66 NW8       29.87F HX  81
IOWA CITY      SUNNY     79  68  69 SW8       29.88S HX  81
MT. PLEASANT * MOSUNNY   82  64  54 W7        29.87F HX  84
MUSCATINE *    MOSUNNY   81  68  65 W6        29.87S HX  83
QUAD CITIES    PTSUNNY   81  67  62 W7        29.86S HX  83
$$

IAZ062-063-075>077-085>089-095>099-302300-
   SOUTHEAST IOWA

CITY           SKY/WX    TMP DP  RH WIND       PRES   REMARKS
BURLINGTON     LGT RAIN  82  69  64 NW5       29.87F HX  85
FAIRFIELD *    SUNNY     81  66  61 VRB3      29.89F HX  83
FORT MADISON * SUNNY     84  70  61 W5        29.88F HX  88
KEOKUK *       SUNNY     82  70  65 W8        29.86F HX  86
OSKALOOSA *      N/A     81  68  65 CALM      29.89S HX  83
CENTERVILLE *  MOSUNNY   81  72  74 W3        29.90F HX  84
OTTUMWA        SUNNY     79  67  66 W3        29.88F HX  81
WASHINGTON *   SUNNY     79  70  73 NW8       29.88F HX  81
$$

ABBREVIATIONS USED IN REMARKS
   TC - TEMPERATURES IN CELSIUS
  WCI - WIND CHILL INDEX
   HX - HEAT INDEX
  VSB - VISIBILITY
$$



USA.gov is the U.S. government's official web portal to all federal, state and local government web resources and services.